DAMPETORP Weather Reports


time (UTC)temp
C
wind
direction
speed
KPH
gust
KPH
rain 1hr
cm
rain 24hr
cm
rain mn
cm
humidity
%
barometer
mb
20260507103023 14 233 4.8 14.5 0.00 0.00 0.00 38 1013.1
20260507101522 13 122 1.6 9.7 0.00 0.00 0.00 37 1013.1
20260507100019 13 151 0.0 12.9 0.00 0.00 0.00 37 1013.0
20260507094517 13 170 3.2 8.0 0.00 0.00 0.00 38 1012.9
20260507093017 13 106 0.0 12.9 0.00 0.00 0.00 39 1012.9
20260507091518 12 150 4.8 9.7 0.00 0.00 0.00 43 1013.0
20260507090021 12 157 1.6 8.0 0.00 0.00 0.00 43 1012.9
20260507084510 12 140 0.0 6.4 0.00 0.00 0.00 45 1013.0
20260507083006 12 158 0.0 4.8 0.00 0.00 0.00 49 1012.9
20260507081504 12 131 1.6 4.8 0.00 0.00 0.00 50 1012.8
20260507080003 11 33 0.0 4.8 0.00 0.00 0.00 51 1012.7
20260507074600 12 158 0.0 1.6 0.00 0.00 0.00 50 1012.7
20260507073106 11 143 0.0 4.8 0.00 0.00 0.00 54 1012.6
20260507071556 10 150 0.0 6.4 0.00 0.00 0.00 54 1012.6
20260507070055 11 112 0.0 3.2 0.00 0.00 0.00 53 1012.6
20260507064552 10 78 0.0 3.2 0.00 0.00 0.00 57 1012.5
20260507063056 10 87 0.0 1.6 0.00 0.00 0.00 56 1012.5
20260507061549 8 30 0.0 3.2 0.00 0.00 0.00 58 1012.4
20260507060050 8 126 0.0 4.8 0.00 0.00 0.00 60 1012.4
20260507054541 7 73 3.2 8.0 0.00 0.00 0.00 61 1012.2
20260507053039 6 334 4.8 8.0 0.00 0.00 0.00 62 1012.2
20260507051538 6 329 4.8 9.7 0.00 0.00 0.00 62 1012.1
20260507050035 5 94 0.0 0.0 0.00 0.00 0.00 68 1012.0
20260507044534 3 106 0.0 0.0 0.00 0.00 0.00 71 1012.0
20260507043033 3 106 0.0 0.0 0.00 0.00 0.00 74 1011.8
20260507041531 2 106 0.0 0.0 0.00 0.00 0.00 73 1011.8
20260507040030 2 106 0.0 0.0 0.00 0.00 0.00 73 1011.7
20260507034530 2 353 0.0 0.0 0.00 0.00 0.00 71 1011.7
20260507033030 2 353 0.0 0.0 0.00 0.00 0.00 71 1011.4
20260507031526 3 329 0.0 3.2 0.00 0.00 0.00 68 1011.3
20260507030026 2 329 0.0 3.2 0.00 0.00 0.00 72 1011.2
20260507024525 2 308 0.0 0.0 0.00 0.00 0.00 74 1011.4
20260507023023 1 307 0.0 1.6 0.00 0.00 0.00 74 1011.4
20260507021524 1 304 0.0 1.6 0.00 0.00 0.00 74 1011.4
20260507020028 1 304 0.0 0.0 0.00 0.00 0.00 70 1011.4
20260507014526 2 304 0.0 0.0 0.00 0.00 0.00 66 1011.3
20260507013023 3 304 0.0 0.0 0.00 0.00 0.00 64 1011.3
20260507011512 3 295 1.6 6.4 0.00 0.00 0.00 62 1011.1
20260507010005 4 317 0.0 3.2 0.00 0.00 0.00 60 1011.2
20260507004504 5 320 0.0 6.4 0.00 0.00 0.00 59 1011.1
20260507003005 5 304 1.6 6.4 0.00 0.00 0.00 59 1011.1
20260507001504 5 314 1.6 9.7 0.00 0.00 0.00 60 1011.1
20260506234556 5 348 0.0 3.2 0.00 0.00 0.00 58 1011.1
20260506233109 5 342 0.0 3.2 0.00 0.00 0.00 58 1011.1
20260506231559 5 342 0.0 3.2 0.00 0.00 0.00 57 1011.1
20260506230053 6 356 0.0 4.8 0.00 0.00 0.00 56 1011.0
20260506224552 6 336 0.0 6.4 0.00 0.00 0.00 55 1011.0
20260506223049 6 319 0.0 9.7 0.00 0.00 0.00 55 1011.0
20260506221549 6 356 1.6 9.7 0.00 0.00 0.00 54 1011.0
20260506220045 6 46 0.0 4.8 0.00 0.00 0.00 54 1010.9
20260506214544 6 332 1.6 8.0 0.00 0.00 0.00 55 1011.0
20260506213058 6 349 0.0 4.8 0.00 0.00 0.00 55 1010.8
20260506211546 6 307 0.0 4.8 0.00 0.00 0.00 54 1010.7
20260506210042 6 328 0.0 8.0 0.00 0.00 0.00 52 1010.7
20260506204541 6 306 1.6 11.3 0.00 0.00 0.00 51 1010.6
20260506203041 6 309 1.6 4.8 0.00 0.00 0.00 50 1010.7
20260506201542 7 324 1.6 6.4 0.00 0.00 0.00 48 1010.7
20260506200039 7 316 0.0 4.8 0.00 0.00 0.00 47 1010.6
20260506194539 7 354 1.6 9.7 0.00 0.00 0.00 45 1010.5
20260506193040 7 356 1.6 11.3 0.00 0.00 0.00 44 1010.4
20260506191541 8 325 1.6 8.0 0.00 0.00 0.00 43 1010.4
20260506190037 8 335 3.2 9.7 0.00 0.00 0.00 41 1010.3
20260506184547 9 348 3.2 11.3 0.00 0.00 0.00 39 1010.1
20260506183050 10 316 4.8 9.7 0.00 0.00 0.00 37 1010.0
20260506181600 11 306 6.4 14.5 0.00 0.00 0.00 36 1009.9
20260506180036 11 304 3.2 19.3 0.00 0.00 0.00 34 1009.6
20260506174534 11 297 1.6 16.1 0.00 0.00 0.00 33 1009.6
20260506173052 12 303 3.2 16.1 0.00 0.00 0.00 31 1009.4
20260506171533 13 210 3.2 9.7 0.00 0.00 0.00 28 1009.4
20260506170038 13 44 0.0 4.8 0.00 0.00 0.00 23 1009.3
20260506164537 14 72 0.0 6.4 0.00 0.00 0.00 22 1009.3
20260506163037 14 347 1.6 12.9 0.00 0.00 0.00 22 1009.4
20260506161530 14 69 0.0 3.2 0.00 0.00 0.00 22 1009.4
20260506160029 15 62 1.6 8.0 0.00 0.00 0.00 21 1009.4
20260506154529 14 148 0.0 9.7 0.00 0.00 0.00 23 1009.5
20260506153027 14 143 1.6 8.0 0.00 0.00 0.00 21 1009.6
20260506151526 14 131 0.0 6.4 0.00 0.00 0.00 22 1009.6
20260506150029 14 37 4.8 14.5 0.00 0.00 0.00 21 1009.7
20260506144523 13 51 0.0 9.7 0.00 0.00 0.00 21 1009.8
20260506143023 13 321 1.6 9.7 0.00 0.00 0.00 23 1009.9
20260506141521 13 336 1.6 12.9 0.00 0.00 0.00 22 1010.0
20260506140021 13 340 4.8 11.3 0.00 0.00 0.00 21 1010.2
20260506134518 12 96 1.6 11.3 0.00 0.00 0.00 22 1010.2
20260506133019 13 51 3.2 14.5 0.00 0.00 0.00 20 1010.3
20260506131524 13 110 4.8 12.9 0.00 0.00 0.00 24 1010.4
20260506130014 12 11 0.0 16.1 0.00 0.00 0.00 28 1010.6
20260506124513 13 336 6.4 12.9 0.00 0.00 0.00 25 1010.6
20260506123013 12 354 4.8 11.3 0.00 0.00 0.00 26 1010.6
20260506121513 12 73 3.2 20.9 0.00 0.00 0.00 27 1010.8
20260506120018 12 38 8.0 17.7 0.00 0.00 0.00 27 1010.8
20260506114519 12 128 1.6 14.5 0.00 0.00 0.00 26 1010.8
20260506113023 12 317 4.8 14.5 0.00 0.00 0.00 26 1010.9
20260506111512 12 337 1.6 14.5 0.00 0.00 0.00 28 1010.9
20260506110011 11 359 1.6 20.9 0.00 0.00 0.00 29 1011.0
20260506104507 11 14 3.2 17.7 0.00 0.00 0.00 30 1011.1